Weather in Sadovoye

Russia / Saratov Oblast     51°02′17″N   45°51′34″E
temp.,
°C
wind,
m/s
gust,
m/s
humid.,
%
clouds,
%
prec.,
mm/h
press.,
hPa
HPBL,
m
24 july, sat
sat2401:00+17nw22570 0.0 100812
04:00+16w33620 0.0 100938
07:00+18w36610 0.0 1009164
10:00+23w56430 0.0 10101021
13:00+25nw673854 0.0 10102405
16:00+23wnw57436 0.0 10111595
19:00+22nnw47491 0.0 1012787
22:00+17nw48691 0.0 1014132
25 july, sun
sun2501:00+16nnw33721 0.0 101542
04:00+15nnw33734 0.0 101636
07:00+17n24665 0.0 1018146
10:00+21ne445118 0.0 1019700
13:00+24nne32396 0.0 10201753
16:00+25nne443585 0.0 10202263
19:00+23n344370 0.0 1020415
22:00+18nne365614 0.0 102287
26 july, mon
mon2601:00+18nne3452100 0.0 1022105
04:00+17ne3556100 0.0 1023128
07:00+17nne235964 0.0 1024102
10:00+21ne334547 0.0 1024570
13:00+24ne213678 0.0 10241494
16:00+25nne443578 0.0 10232160
19:00+22nne354399 0.0 1022261
22:00+19n334940 0.0 102331
27 july, tue
tue2701:00+17n23560 0.0 102320
04:00+15n32580 0.0 102321
07:00+17nne23580 0.0 1023110
10:00+22nne33390 0.0 1023930
13:00+25nne45300 0.0 10221919
16:00+26nne46290 0.0 10212074
19:00+25nnw35340 0.0 10201331
22:00+20nnw33505 0.0 102029
28 july, wed
wed2801:00+18nnw33530 0.0 102021
04:00+17nw33564 0.0 102022
07:00+19nw23555 0.0 1020104
10:00+25nnw34405 0.0 1020886
13:00+28nnw343394 0.0 10182747
16:00+28n453155 0.0 10172719
19:00+25nne684387 0.0 1017495
22:00+23nnw224666 0.0 101613